This demonstration page uses our WeatherBlox Daily Observations layout. Learn more.

Hourly Observations for September 29, 2019

Temp ( °F °C ) Dew Point ( °F °C ) Humidity (%) Winds ( mph kmh ) Pressure ( in mb ) Visibility ( mi km ) Precip ( " mm )
12:15 am 00:15 Cloudy with Mist and Fog 57 14 57 14 100 100 E 10 17 29.9 1012 2 3.21868 0 0
12:35 am 00:35 Cloudy with Mist and Fog 57 14 57 14 100 100 ESE 12 19 29.9 1012 0.75 1.207005 0 0
12:55 am 00:55 Cloudy with Mist and Fog 57 14 57 14 100 100 ESE 13 20 29.89 1012 0.75 1.207005 0 0
1:15 am 01:15 Cloudy with Mist and Fog 57 14.1 57 14.1 100 100 ESE 10 17 29.88 1012 1 1.60934 0 0
1:35 am 01:35 Cloudy with Mist and Fog 58 14.2 58 14.2 100 100 ESE 12 19 29.88 1012 1.5 2.41401 0 0
1:55 am 01:55 Cloudy with Mist and Fog 58 14.2 58 14.2 100 100 ESE 10 17 29.88 1012 1 1.60934 0 0
2:15 am 02:15 Cloudy with Mist and Fog 58 14.3 58 14.3 100 100 ESE 9 15 29.88 1012 0.75 1.207005 0 0
2:35 am 02:35 Cloudy with Mist and Fog 58 14.3 58 14.3 100 100 ESE 10 17 29.88 1012 1 1.60934 0 0
2:55 am 02:55 Cloudy with Mist and Fog 58 14.5 58 14.5 100 100 ESE 10 17 29.86 1011 0.75 1.207005 0 0
3:15 am 03:15 Cloudy with Mist and Fog 58 14.5 58 14.5 100 100 ESE 10 17 29.85 1011 0.75 1.207005 0 0
3:35 am 03:35 Cloudy with Fog 58 14.7 58 14.7 100 100 ESE 10 17 29.85 1011 0.5 0.80467 0 0
3:55 am 03:55 Cloudy with Mist and Fog 59 15 59 15 100 100 SE 12 19 29.84 1010 0.75 1.207005 0 0
4:15 am 04:15 Cloudy with Mist and Fog 59 15 59 15 100 100 SE 10 17 29.84 1010 0.75 1.207005 0 0
4:35 am 04:35 Cloudy with Fog 59 15.1 59 15.1 100 100 SE 8 13 29.83 1010 0.5 0.80467 0 0
4:55 am 04:55 Cloudy with Mist and Fog 60 15.3 60 15.3 100 100 SE 10 17 29.83 1010 0.75 1.207005 0 0
5:15 am 05:15 Cloudy with Mist and Fog 60 15.5 60 15.5 100 100 SE 13 20 29.82 1010 0.75 1.207005 0 0
5:35 am 05:35 Cloudy with Mist and Fog 60 15.7 60 15.7 100 100 SE 12 19 29.8 1009 0.75 1.207005 0 0
5:55 am 05:55 Cloudy with Mist and Fog 60 15.7 60 15.7 100 100 SE 10 17 29.8 1009 0.75 1.207005 0 0
6:15 am 06:15 Cloudy with Mist and Fog 60 15.8 60 15.8 100 100 SE 9 15 29.81 1010 0.75 1.207005 0 0
6:35 am 06:35 Cloudy with Mist and Fog 62 16.4 62 16.4 100 100 SE 9 15 29.81 1009 0.75 1.207005 0 0
6:55 am 06:55 Cloudy with Mist and Fog 62 16.5 62 16.5 100 100 SE 13 20 29.8 1009 1 1.60934 0 0
7:15 am 07:15 Cloudy with Mist and Fog 62 16.7 62 16.7 100 100 SE 12 19 29.8 1009 1.25 2.011675 0 0
7:35 am 07:35 Cloudy with Mist and Fog 63 17 63 17 100 100 SE 13 20 29.79 1009 1 1.60934 0 0
7:55 am 07:55 Cloudy with Mist and Fog 63 17.2 63 17.2 100 100 SSE 14 22 29.79 1009 0.75 1.207005 0 0
8:15 am 08:15 Cloudy with Fog 64 17.8 64 17.8 100 100 SSE 14 22 29.78 1008 0.5 0.80467 0 0
8:35 am 08:35 Cloudy with Fog 65 18.1 65 18.1 100 100 SSE 12 19 29.77 1008 0.5 0.80467 0 0
8:55 am 08:55 Cloudy with Fog 65 18.6 65 18.6 100 100 SSE 15 24 29.77 1008 0.5 0.80467 0 0
9:15 am 09:15 Cloudy with Mist and Fog 66 19.1 66 19.1 100 100 SSE 13 20 29.76 1008 1.75 2.816345 0 0
9:35 am 09:35 Cloudy with Mist and Fog 67 19.5 67 19.5 100 100 SSE 15 24 29.75 1008 2.5 4.02335 0 0
9:55 am 09:55 Cloudy with Mist and Fog 68 19.8 68 19.8 100 100 SSE 15 24 29.75 1007 4 6.43736 0 0
10:15 am 10:15 Cloudy with Mist and Fog 68 20.2 68 20.2 100 100 SSE 16 26 29.75 1007 5 8.0467 0 0
10:35 am 10:35 Cloudy 70 21 70 21 100 100 SSE 15 24 29.74 1007 7 11.26538 0 0
10:55 am 10:55 Cloudy 71 21.6 70 21.2 98 98 SSE 14 22 29.72 1007 10 16.0934 0 0
11:15 am 11:15 Cloudy 73 22.6 71 21.5 94 94 SSE 15 24 29.71 1006 10 16.0934 0 0
11:35 am 11:35 Cloudy 76 24.2 72 22 88 88 S 21 33 29.68 1005 10 16.0934 0 0
11:55 am 11:55 Cloudy 77 25.1 71 21.8 82 82 S 17 28 29.67 1005 10 16.0934 0 0
12:15 pm 12:15 Mostly Cloudy 80 26.5 70 21.3 73 73 S 25 41 29.65 1004 10 16.0934 0 0
12:35 pm 12:35 Partly Cloudy 81 27.4 70 21.2 69 69 S 22 35 29.63 1003 10 16.0934 0 0
12:55 pm 12:55 Sunny 83 28.6 69 20.6 62 62 S 25 41 29.61 1003 10 16.0934 0 0
1:15 pm 13:15 Sunny 85 29.5 69 20.4 58 58 S 25 41 29.59 1002 10 16.0934 0 0
1:35 pm 13:35 Sunny 86 30 69 20.7 57 57 S 25 41 29.58 1002 10 16.0934 0 0
1:55 pm 13:55 Sunny 87 30.5 70 20.9 57 57 S 26 43 29.57 1001 10 16.0934 0 0
2:15 pm 14:15 Sunny 87 30.6 69 20.3 54 54 S 24 39 29.55 1001 10 16.0934 0 0
2:35 pm 14:35 Sunny 88 30.9 69 20.8 55 55 SSE 28 44 29.54 1000 10 16.0934 0 0
2:55 pm 14:55 Partly Cloudy 88 31 70 21 55 55 S 28 44 29.54 1000 10 16.0934 0 0
3:15 pm 15:15 Sunny 88 31.1 70 21 55 55 S 26 43 29.53 1000 10 16.0934 0 0
3:35 pm 15:35 Sunny 89 31.6 68 20 50 50 S 28 44 29.53 1000 10 16.0934 0 0
3:55 pm 15:55 Sunny 89 31.7 69 20.3 51 51 S 25 41 29.52 1000 10 16.0934 0 0
4:15 pm 16:15 Sunny 89 31.6 69 20.3 51 51 S 28 44 29.52 1000 10 16.0934 0 0
4:35 pm 16:35 Sunny 89 31.5 67 19.5 49 49 S 29 46 29.51 999 10 16.0934 0 0
4:55 pm 16:55 Partly Cloudy 89 31.6 69 20.4 51 51 S 28 44 29.52 1000 10 16.0934 0 0
5:15 pm 17:15 Partly Cloudy 88 31.2 68 20.2 52 52 S 28 44 29.52 1000 10 16.0934 0 0
5:35 pm 17:35 Sunny 88 31 67 19.7 51 51 S 25 41 29.53 1000 10 16.0934 0 0
5:55 pm 17:55 Partly Cloudy 88 30.9 68 19.8 52 52 S 23 37 29.52 1000 10 16.0934 0 0
6:15 pm 18:15 Mostly Cloudy 87 30.5 67 19.5 52 52 S 28 44 29.54 1000 10 16.0934 0 0
6:35 pm 18:35 Partly Cloudy 86 30 67 19.5 53 53 S 21 33 29.54 1000 10 16.0934 0 0
6:55 pm 18:55 Sunny 85 29.5 67 19.7 56 56 S 20 31 29.54 1000 10 16.0934 0 0
7:15 pm 19:15 Sunny 83 28.6 69 20.4 61 61 SSE 18 30 29.54 1000 10 16.0934 0 0
7:35 pm 19:35 Clear 82 28 69 20.8 65 65 S 22 35 29.56 1001 10 16.0934 0 0
7:55 pm 19:55 Clear 82 27.5 70 21 68 68 SSE 18 30 29.57 1001 10 16.0934 0 0
8:15 pm 20:15 Clear 81 27.2 70 21.2 70 70 SSE 20 31 29.58 1002 10 16.0934 0 0
8:35 pm 20:35 Clear 80 26.6 71 21.4 73 73 S 20 31 29.59 1002 10 16.0934 0 0
8:55 pm 20:55 Clear 79 26.3 71 21.5 75 75 SSE 20 31 29.59 1002 10 16.0934 0 0
9:15 pm 21:15 Clear 79 26 70 21.3 75 75 SSE 18 30 29.61 1003 10 16.0934 0 0
9:35 pm 21:35 Clear 78 25.8 70 21.2 76 76 SSE 17 28 29.61 1003 10 16.0934 0 0
9:55 pm 21:55 Clear 78 25.6 70 21.1 76 76 SSE 18 30 29.61 1003 10 16.0934 0 0
10:15 pm 22:15 Clear 78 25.4 70 21 77 77 SSE 20 31 29.62 1003 10 16.0934 0 0
10:35 pm 22:35 Clear 78 25.3 69 20.7 76 76 SSE 17 28 29.64 1004 10 16.0934 0 0
10:55 pm 22:55 Clear 77 25 69 20.6 77 77 SSE 16 26 29.64 1004 10 16.0934 0 0
11:15 pm 23:15 Clear 77 25 69 20.6 77 77 S 18 30 29.64 1004 10 16.0934 0 0
11:35 pm 23:35 Clear 77 24.8 69 20.6 78 78 SSE 16 26 29.64 1004 10 16.0934 0 0
11:55 pm 23:55 Clear 76 24.5 69 20.6 79 79 SSE 20 31 29.64 1004 10 16.0934 0 0

Powered by AerisWeather